EW0797 Weather Reports


time (UTC)temp
F
wind
direction
speed
knots
gust
knots
rain 1hr
in
rain 24hr
in
rain mn
in
humidity
%
barometer
mb
20220124174441 42 205 2.6 8.7 0.00 0.00 0.00 58 1006.9
20220124173941 41 204 3.5 8.7 0.00 0.00 0.00 58 1007.1
20220124173441 41 202 4.3 8.7 0.00 0.00 0.00 58 1007.2
20220124172941 41 210 4.3 8.7 0.00 0.00 0.00 58 1007.3
20220124172441 40 215 4.3 8.7 0.00 0.00 0.00 59 1007.4
20220124171941 40 204 4.3 10.4 0.00 0.00 0.00 59 1007.5
20220124171441 40 199 5.2 10.4 0.00 0.00 0.00 59 1007.5
20220124170941 39 194 5.2 11.3 0.00 0.00 0.00 60 1007.5
20220124170441 39 197 5.2 11.3 0.00 0.00 0.00 60 1007.5
20220124165940 38 197 4.3 11.3 0.00 0.00 0.00 60 1007.7
20220124165440 38 187 3.5 7.0 0.00 0.00 0.00 62 1007.8
20220124164941 37 182 3.5 7.8 0.00 0.00 0.00 62 1008.0
20220124164441 36 185 3.5 7.8 0.00 0.00 0.00 63 1008.1
20220124163941 36 184 3.5 7.0 0.00 0.00 0.00 63 1008.2
20220124163441 35 181 4.3 10.4 0.00 0.00 0.00 63 1008.3
20220124162941 35 183 5.2 10.4 0.00 0.00 0.00 63 1008.4
20220124162441 34 185 4.3 11.3 0.00 0.00 0.00 63 1008.4
20220124161941 34 187 3.5 11.3 0.00 0.00 0.00 63 1008.5
20220124161440 34 189 4.3 9.6 0.00 0.00 0.00 63 1008.6
20220124160940 34 195 4.3 8.7 0.00 0.00 0.00 64 1008.7
20220124160441 33 192 3.5 7.0 0.00 0.00 0.00 65 1008.8
20220124155941 32 186 4.3 9.6 0.00 0.00 0.00 65 1009.0
20220124155441 32 187 4.3 9.6 0.00 0.00 0.00 65 1008.9
20220124154941 32 189 4.3 8.7 0.00 0.00 0.00 66 1008.9
20220124154441 32 192 4.3 12.2 0.00 0.00 0.00 66 1008.9
20220124153941 31 191 4.3 12.2 0.00 0.00 0.00 67 1008.8
20220124153440 31 184 4.3 8.7 0.00 0.00 0.00 67 1008.8
20220124152940 30 182 4.3 8.7 0.00 0.00 0.00 67 1008.8
20220124152441 30 189 4.3 8.7 0.00 0.00 0.00 68 1009.0
20220124151941 30 195 4.3 8.7 0.00 0.00 0.00 68 1008.9
20220124151441 30 197 4.3 7.8 0.00 0.00 0.00 68 1009.0
20220124150941 30 189 3.5 7.8 0.00 0.00 0.00 69 1009.0
20220124150440 30 183 3.5 7.8 0.00 0.00 0.00 69 1008.8
20220124145940 29 195 4.3 11.3 0.00 0.00 0.00 69 1009.0
20220124145441 29 190 4.3 11.3 0.00 0.00 0.00 70 1009.0
20220124144940 29 184 3.5 7.8 0.00 0.00 0.00 71 1008.8
20220124144441 29 189 3.5 7.8 0.00 0.00 0.00 71 1008.9
20220124143941 28 179 2.6 7.0 0.00 0.00 0.00 71 1009.1
20220124143441 28 172 3.5 7.0 0.00 0.00 0.00 72 1009.0
20220124142941 28 178 2.6 6.1 0.00 0.00 0.00 72 1009.1
20220124142441 28 174 1.7 6.1 0.00 0.00 0.00 73 1009.2
20220124141940 28 169 2.6 6.1 0.00 0.00 0.00 73 1009.1
20220124141440 28 190 2.6 7.0 0.00 0.00 0.00 73 1009.1
20220124140941 27 197 2.6 7.0 0.00 0.00 0.00 73 1009.5
20220124140441 27 189 3.5 6.1 0.00 0.00 0.00 74 1009.4
20220124135941 27 177 3.5 8.7 0.00 0.00 0.00 74 1009.4
20220124135441 27 168 3.5 8.7 0.00 0.00 0.00 74 1009.3
20220124134940 27 186 3.5 8.7 0.00 0.00 0.00 74 1009.5
20220124134440 27 204 3.5 8.7 0.00 0.00 0.00 74 1010.0
20220124133940 26 195 2.6 7.0 0.00 0.00 0.00 74 1009.9
20220124133441 26 185 2.6 6.1 0.00 0.00 0.00 75 1009.9
20220124132941 26 196 2.6 6.1 0.00 0.00 0.00 75 1010.0
20220124132440 26 206 2.6 7.0 0.00 0.00 0.00 75 1010.0
20220124131940 26 194 2.6 7.0 0.00 0.00 0.00 75 1010.0
20220124131441 26 175 2.6 7.0 0.00 0.00 0.00 75 1009.6
20220124130941 26 175 2.6 7.0 0.00 0.00 0.00 75 1009.6
20220124130441 26 173 2.6 6.1 0.00 0.00 0.00 76 1009.7
20220124125941 26 160 2.6 6.1 0.00 0.00 0.00 76 1009.5
20220124125441 26 157 2.6 6.1 0.00 0.00 0.00 76 1009.6
20220124124941 25 170 1.7 5.2 0.00 0.00 0.00 76 1010.0
20220124124440 25 176 2.6 5.2 0.00 0.00 0.00 76 1010.4
20220124123940 25 171 1.7 5.2 0.00 0.00 0.00 76 1010.5
20220124123441 25 170 1.7 5.2 0.00 0.00 0.00 77 1010.6
20220124122941 25 173 1.7 4.3 0.00 0.00 0.00 77 1010.7
20220124122441 25 161 1.7 5.2 0.00 0.00 0.00 77 1010.6
20220124121940 25 162 1.7 5.2 0.00 0.00 0.00 77 1010.7
20220124121440 25 164 1.7 3.5 0.00 0.00 0.00 77 1010.7
20220124120940 24 159 1.7 3.5 0.00 0.00 0.00 77 1010.7
20220124120441 24 159 1.7 4.3 0.00 0.00 0.00 77 1010.7
20220124115941 24 149 1.7 4.3 0.00 0.00 0.00 77 1010.9
20220124115441 24 135 0.9 3.5 0.00 0.00 0.00 76 1010.8
20220124114940 24 146 0.9 2.6 0.00 0.00 0.00 76 1011.0
20220124114440 24 162 0.9 2.6 0.00 0.00 0.00 76 1011.2
20220124113940 24 158 1.7 3.5 0.00 0.00 0.00 76 1011.2
20220124113441 24 153 1.7 4.3 0.00 0.00 0.00 76 1011.2
20220124112941 24 150 0.9 4.3 0.00 0.00 0.00 76 1011.1
20220124112440 24 148 0.9 2.6 0.00 0.00 0.00 76 1011.3
20220124111940 24 139 1.7 3.5 0.00 0.00 0.00 75 1011.3
20220124111441 24 139 1.7 3.5 0.00 0.00 0.00 75 1011.2
20220124110941 24 142 1.7 3.5 0.00 0.00 0.00 75 1011.4
20220124110441 24 135 1.7 2.6 0.00 0.00 0.00 75 1011.5
20220124105941 23 136 1.7 4.3 0.00 0.00 0.00 75 1011.6
20220124105440 23 138 2.6 4.3 0.00 0.00 0.00 75 1011.7
20220124104940 23 139 1.7 4.3 0.00 0.00 0.00 74 1011.8
20220124104441 23 145 1.7 4.3 0.00 0.00 0.00 74 1012.0
20220124103941 23 151 1.7 3.5 0.00 0.00 0.00 73 1012.1
20220124103441 24 149 0.9 3.5 0.00 0.00 0.00 73 1012.2
20220124102941 24 140 0.9 3.5 0.00 0.00 0.00 73 1012.2
20220124102440 24 128 0.9 3.5 0.00 0.00 0.00 73 1012.3
20220124101940 24 138 1.7 5.2 0.00 0.00 0.00 73 1012.4
20220124101440 24 141 2.6 5.2 0.00 0.00 0.00 73 1012.3
20220124100941 24 133 1.7 4.3 0.00 0.00 0.00 72 1012.4
20220124100441 24 137 1.7 4.3 0.00 0.00 0.00 72 1012.6
20220124095941 24 149 0.9 3.5 0.00 0.00 0.00 72 1012.5
20220124095441 24 154 0.9 2.6 0.00 0.00 0.00 72 1012.8
20220124094940 24 153 1.7 4.3 0.00 0.00 0.00 72 1012.9
20220124094441 24 145 2.6 5.2 0.00 0.00 0.00 72 1012.8
20220124093940 24 138 3.5 6.1 0.00 0.00 0.00 71 1012.6
20220124093441 24 139 3.5 6.1 0.00 0.00 0.00 71 1012.7
20220124092941 24 141 3.5 6.1 0.00 0.00 0.00 71 1012.8
20220124092441 24 139 2.6 5.2 0.00 0.00 0.00 71 1013.0
20220124091940 24 138 2.6 5.2 0.00 0.00 0.00 71 1013.1
20220124091440 24 134 2.6 5.2 0.00 0.00 0.00 71 1013.0
20220124090940 24 133 3.5 7.8 0.00 0.00 0.00 71 1013.1
20220124090441 24 134 3.5 7.8 0.00 0.00 0.00 71 1013.2
20220124085941 24 134 2.6 5.2 0.00 0.00 0.00 71 1013.3
20220124085441 24 135 2.6 5.2 0.00 0.00 0.00 70 1013.4
20220124084940 24 135 2.6 5.2 0.00 0.00 0.00 70 1013.5
20220124084440 24 133 1.7 5.2 0.00 0.00 0.00 70 1013.6
20220124083940 24 132 1.7 4.3 0.00 0.00 0.00 70 1013.7
20220124083441 24 133 2.6 5.2 0.00 0.00 0.00 70 1013.8
20220124082941 24 128 2.6 6.1 0.00 0.00 0.00 69 1013.8
20220124082441 24 123 2.6 6.1 0.00 0.00 0.00 69 1013.8
20220124081940 24 129 2.6 6.1 0.00 0.00 0.00 69 1013.8
20220124081440 24 136 2.6 6.1 0.00 0.00 0.00 69 1013.9
20220124080940 24 132 2.6 5.2 0.00 0.00 0.00 69 1013.9
20220124080441 24 125 1.7 5.2 0.00 0.00 0.00 69 1013.9
20220124075941 24 123 1.7 5.2 0.00 0.00 0.00 69 1013.9
20220124075441 24 129 2.6 5.2 0.00 0.00 0.00 69 1013.9
20220124074940 24 128 2.6 5.2 0.00 0.00 0.00 70 1013.9
20220124074440 24 125 2.6 6.1 0.00 0.00 0.00 70 1013.9
20220124073940 24 125 1.7 6.1 0.00 0.00 0.00 70 1014.0
20220124073441 24 118 1.7 4.3 0.00 0.00 0.00 70 1014.0
20220124072941 24 111 1.7 5.2 0.00 0.00 0.00 71 1014.0
20220124072441 24 107 1.7 5.2 0.00 0.00 0.00 71 1013.9
20220124071941 24 101 1.7 3.5 0.00 0.00 0.00 72 1014.1
20220124071440 24 93 1.7 4.3 0.00 0.00 0.00 72 1014.2
20220124070940 24 90 1.7 4.3 0.00 0.00 0.00 73 1014.1
20220124070440 24 99 0.9 4.3 0.00 0.00 0.00 74 1014.1
20220124065941 23 118 0.9 4.3 0.00 0.00 0.00 76 1014.2
20220124065440 23 117 0.9 2.6 0.00 0.00 0.00 77 1014.2
20220124064940 23 105 0.9 2.6 0.00 0.00 0.00 78 1014.2
20220124064441 23 99 0.9 2.6 0.00 0.00 0.00 79 1014.2
20220124063941 23 90 0.9 2.6 0.00 0.00 0.00 79 1014.2
20220124063441 23 74 1.7 3.5 0.00 0.00 0.00 79 1014.3
20220124062940 22 59 0.9 3.5 0.00 0.00 0.00 79 1014.3
20220124062440 22 0 0.0 3.5 0.00 0.00 0.00 78 1014.3
20220124061940 22 0 0.0 0.0 0.00 0.00 0.00 78 1014.4
20220124061440 22 0 0.0 0.0 0.00 0.00 0.00 77 1014.6
20220124060941 22 0 0.0 0.0 0.00 0.00 0.00 77 1014.7
20220124060441 22 0 0.0 0.0 0.00 0.00 0.00 76 1014.8
20220124055940 22 0 0.0 0.0 0.00 0.00 0.00 76 1014.9
20220124055440 22 0 0.0 0.0 0.00 0.00 0.00 76 1014.9
20220124054941 22 0 0.0 0.0 0.00 0.00 0.00 75 1014.9
20220124054441 22 0 0.0 0.0 0.00 0.00 0.00 75 1014.9
20220124053940 22 0 0.0 0.0 0.00 0.00 0.00 75 1015.1
20220124053441 22 0 0.0 0.0 0.00 0.00 0.00 75 1015.1
20220124052940 22 0 0.0 0.0 0.00 0.00 0.00 75 1015.2
20220124052440 23 0 0.0 0.0 0.00 0.00 0.00 75 1015.4
20220124051940 23 0 0.0 0.0 0.00 0.00 0.00 75 1015.4
20220124051441 23 0 0.0 0.0 0.00 0.00 0.00 75 1015.4
20220124050941 23 0 0.0 0.0 0.00 0.00 0.00 75 1015.4
20220124050442 23 0 0.0 0.0 0.00 0.00 0.00 75 1015.3
20220124045941 23 0 0.0 0.0 0.00 0.00 0.00 75 1015.4
20220124045440 23 0 0.0 0.0 0.00 0.00 0.00 74 1015.3
20220124044940 23 0 0.0 0.0 0.00 0.00 0.00 74 1015.4
20220124044440 23 0 0.0 0.0 0.00 0.00 0.00 74 1015.4
20220124043941 23 0 0.0 0.0 0.00 0.00 0.00 74 1015.1
20220124043443 23 0 0.0 0.0 0.00 0.00 0.00 74 1015.1
20220124042941 24 0 0.0 0.0 0.00 0.00 0.00 73 1015.4
20220124042441 24 0 0.0 0.0 0.00 0.00 0.00 72 1015.6
20220124041940 24 0 0.0 0.0 0.00 0.00 0.00 72 1015.7
20220124041440 24 0 0.0 0.0 0.00 0.00 0.00 72 1015.6
20220124040940 24 0 0.0 0.0 0.00 0.00 0.00 71 1015.7
20220124040440 24 0 0.0 0.0 0.00 0.00 0.00 70 1015.7
20220124035941 24 0 0.0 0.0 0.00 0.00 0.00 70 1015.8
20220124035440 25 0 0.0 0.0 0.00 0.00 0.00 69 1015.8
20220124034940 25 0 0.0 0.0 0.00 0.00 0.00 68 1015.9
20220124034440 25 0 0.0 0.0 0.00 0.00 0.00 68 1015.9
20220124033940 25 0 0.0 0.0 0.00 0.00 0.00 68 1015.6
20220124033441 26 0 0.0 0.0 0.00 0.00 0.00 68 1015.5
20220124032941 26 0 0.0 0.0 0.00 0.00 0.00 67 1015.4
20220124032440 26 0 0.0 0.0 0.00 0.00 0.00 67 1015.6
20220124031940 26 0 0.0 0.0 0.00 0.00 0.00 67 1015.5
20220124031440 26 0 0.0 0.0 0.00 0.00 0.00 67 1015.6
20220124030940 27 0 0.0 0.0 0.00 0.00 0.00 66 1015.6
20220124030441 27 0 0.0 0.0 0.00 0.00 0.00 67 1015.5
20220124025940 27 0 0.0 0.0 0.00 0.00 0.00 66 1015.6
20220124025440 27 0 0.0 0.0 0.00 0.00 0.00 66 1015.8
20220124024940 27 0 0.0 0.0 0.00 0.00 0.00 66 1015.8
20220124024440 28 0 0.0 0.0 0.00 0.00 0.00 66 1015.8
20220124023940 28 329 0.9 1.7 0.00 0.00 0.00 66 1015.8
20220124023440 28 329 0.9 1.7 0.00 0.00 0.00 66 1015.6
20220124022940 28 329 0.9 1.7 0.00 0.00 0.00 65 1015.6
20220124022440 28 0 0.0 1.7 0.00 0.00 0.00 65 1015.6
20220124021940 28 0 0.0 2.6 0.00 0.00 0.00 65 1015.6
20220124021440 28 329 0.9 2.6 0.00 0.00 0.00 65 1015.8
20220124020940 28 329 0.9 2.6 0.00 0.00 0.00 65 1015.8
20220124020440 29 331 0.9 2.6 0.00 0.00 0.00 65 1015.8
20220124015940 29 340 0.9 3.5 0.00 0.00 0.00 64 1015.7
20220124015441 29 349 0.9 3.5 0.00 0.00 0.00 64 1015.6
20220124014940 29 347 0.9 3.5 0.00 0.00 0.00 64 1015.6
20220124014440 29 349 0.9 3.5 0.00 0.00 0.00 64 1015.5
20220124013940 29 342 1.7 3.5 0.00 0.00 0.00 64 1015.5
20220124013440 30 338 2.6 5.2 0.00 0.00 0.00 64 1015.6
20220124012940 30 340 2.6 6.1 0.00 0.00 0.00 64 1015.6
20220124012440 30 342 2.6 7.0 0.00 0.00 0.00 64 1015.7
20220124011940 30 343 3.5 7.0 0.00 0.00 0.00 64 1015.7
20220124011440 30 343 3.5 6.1 0.00 0.00 0.00 64 1015.6
20220124010940 30 344 2.6 6.1 0.00 0.00 0.00 64 1015.5
20220124010441 30 341 2.6 6.1 0.00 0.00 0.00 64 1015.5
20220124005941 30 335 3.5 7.0 0.00 0.00 0.00 65 1015.4
20220124005440 30 339 3.5 8.7 0.00 0.00 0.00 65 1015.5
20220124004940 30 348 3.5 8.7 0.00 0.00 0.00 65 1015.5
20220124004440 30 353 3.5 7.8 0.00 0.00 0.00 65 1015.2
20220124003940 30 352 3.5 7.0 0.00 0.00 0.00 65 1015.3
20220124003440 30 341 3.5 8.7 0.00 0.00 0.00 65 1015.2
20220124002940 30 335 3.5 8.7 0.00 0.00 0.00 65 1015.3
20220124002440 30 341 2.6 6.1 0.00 0.00 0.00 65 1015.2
20220124001940 30 345 3.5 6.1 0.00 0.00 0.00 65 1015.2
20220124001440 30 341 2.6 6.1 0.00 0.00 0.00 65 1015.0
20220124000940 30 340 2.6 6.1 0.00 0.00 0.00 65 1014.9
20220124000440 30 344 3.5 7.8 0.00 0.00 0.00 64 1014.8
20220123235941 30 346 3.5 7.8 0.00 0.00 0.00 64 1014.7
20220123235440 30 346 3.5 7.8 0.00 0.00 0.00 64 1014.6
20220123234940 31 348 3.5 7.8 0.00 0.00 0.00 64 1014.5
20220123234440 31 355 3.5 8.7 0.00 0.00 0.00 63 1014.5
20220123233940 31 4 4.3 9.6 0.00 0.00 0.00 63 1014.4
20220123233440 31 355 4.3 10.4 0.00 0.00 0.00 63 1014.3
20220123232940 32 348 5.2 10.4 0.00 0.00 0.00 63 1014.2
20220123232440 32 347 5.2 10.4 0.00 0.00 0.00 62 1014.2
20220123231940 32 343 4.3 10.4 0.00 0.00 0.00 62 1014.1
20220123231440 33 341 3.5 8.7 0.00 0.00 0.00 62 1014.1
20220123230940 33 350 4.3 10.4 0.00 0.00 0.00 61 1013.9
20220123230441 33 354 4.3 10.4 0.00 0.00 0.00 60 1013.8
20220123225941 34 355 4.3 10.4 0.00 0.00 0.00 60 1013.7
20220123225440 34 355 4.3 10.4 0.00 0.00 0.00 60 1013.7
20220123224940 34 351 4.3 10.4 0.00 0.00 0.00 59 1013.7
20220123224440 35 350 5.2 12.2 0.00 0.00 0.00 59 1013.5
20220123223940 35 339 4.3 12.2 0.00 0.00 0.00 60 1013.4
20220123223440 35 330 5.2 13.0 0.00 0.00 0.00 60 1013.3
20220123222940 36 334 6.1 13.0 0.00 0.00 0.00 60 1013.3
20220123222440 36 334 6.1 10.4 0.00 0.00 0.00 60 1013.3
20220123221940 36 326 6.1 13.0 0.00 0.00 0.00 60 1013.2
20220123221440 36 328 4.3 13.0 0.00 0.00 0.00 60 1013.2
20220123220940 36 344 4.3 8.7 0.00 0.00 0.00 60 1013.1
20220123220440 37 341 5.2 10.4 0.00 0.00 0.00 60 1013.0
20220123215940 37 332 6.1 12.2 0.00 0.00 0.00 60 1012.9
20220123215440 38 334 6.1 12.2 0.00 0.00 0.00 59 1012.9
20220123214940 38 353 5.2 10.4 0.00 0.00 0.00 58 1012.8
20220123214440 39 352 6.1 10.4 0.00 0.00 0.00 57 1012.6
20220123213940 39 321 7.0 11.3 0.00 0.00 0.00 56 1012.4
20220123213440 40 308 7.8 12.2 0.00 0.00 0.00 56 1012.3
20220123212940 40 314 7.0 14.8 0.00 0.00 0.00 56 1012.3
20220123212441 40 311 6.1 14.8 0.00 0.00 0.00 56 1012.2
20220123211940 40 302 6.1 13.9 0.00 0.00 0.00 57 1012.1
20220123211440 40 297 5.2 13.9 0.00 0.00 0.00 56 1012.1
20220123210940 40 288 5.2 11.3 0.00 0.00 0.00 57 1012.0
20220123210440 40 291 7.0 15.6 0.00 0.00 0.00 56 1011.9
20220123205939 40 291 6.1 15.6 0.00 0.00 0.00 56 1012.0
20220123205440 41 287 6.1 13.9 0.00 0.00 0.00 56 1011.9
20220123204940 41 287 6.1 12.2 0.00 0.00 0.00 56 1011.9
20220123204440 41 288 6.1 13.0 0.00 0.00 0.00 56 1011.8
20220123203940 41 286 6.1 13.0 0.00 0.00 0.00 55 1011.8
20220123203440 41 287 5.2 12.2 0.00 0.00 0.00 55 1011.7
20220123202940 41 287 4.3 12.2 0.00 0.00 0.00 55 1011.7
20220123202441 41 284 4.3 9.6 0.00 0.00 0.00 55 1011.6
20220123201940 41 292 4.3 9.6 0.00 0.00 0.00 55 1011.6
20220123201440 41 281 4.3 10.4 0.00 0.00 0.00 55 1011.5
20220123200940 41 270 4.3 10.4 0.00 0.00 0.00 55 1011.3
20220123200440 41 272 4.3 7.8 0.00 0.00 0.00 55 1011.4
20220123195940 40 269 3.5 8.7 0.00 0.00 0.00 55 1011.2
20220123195440 40 268 3.5 8.7 0.00 0.00 0.00 56 1011.4
20220123194940 40 262 5.2 10.4 0.00 0.00 0.00 55 1011.4
20220123194439 40 257 5.2 11.3 0.00 0.00 0.00 55 1011.3
20220123193940 40 255 5.2 12.2 0.00 0.00 0.00 55 1011.3
20220123193440 40 256 6.1 13.0 0.00 0.00 0.00 55 1011.3
20220123192940 40 259 7.0 13.0 0.00 0.00 0.00 54 1011.3
20220123192440 40 263 6.1 13.0 0.00 0.00 0.00 55 1011.3
20220123191939 40 269 5.2 10.4 0.00 0.00 0.00 54 1011.2
20220123191440 40 271 4.3 12.2 0.00 0.00 0.00 55 1011.2
20220123190940 40 269 5.2 12.2 0.00 0.00 0.00 55 1011.1
20220123190440 39 263 6.1 13.0 0.00 0.00 0.00 55 1011.1
20220123185940 39 254 7.0 13.0 0.00 0.00 0.00 55 1011.1
20220123185440 39 252 7.0 13.9 0.00 0.00 0.00 55 1011.1
20220123184940 39 252 6.1 13.9 0.00 0.00 0.00 55 1011.0
20220123184440 38 246 5.2 13.0 0.00 0.00 0.00 56 1011.0
20220123183940 38 248 4.3 9.6 0.00 0.00 0.00 57 1011.1
20220123183440 38 252 4.3 7.8 0.00 0.00 0.00 56 1011.2
20220123182940 38 248 5.2 12.2 0.00 0.00 0.00 56 1011.2
20220123182440 38 247 5.2 12.2 0.00 0.00 0.00 56 1011.2
20220123181940 37 250 5.2 11.3 0.00 0.00 0.00 56 1011.4
20220123181440 37 255 5.2 11.3 0.00 0.00 0.00 56 1011.3
20220123180939 37 253 4.3 8.7 0.00 0.00 0.00 56 1011.4
20220123180440 37 251 5.2 13.0 0.00 0.00 0.00 56 1011.4
20220123175940 37 251 6.1 13.0 0.00 0.00 0.00 56 1011.6
20220123175440 37 253 5.2 12.2 0.00 0.00 0.00 57 1011.5
20220123174940 37 252 5.2 11.3 0.00 0.00 0.00 57 1011.7